User: anonymous   Login
Location: Cincinnati Observatory Center
(39.1389°N, 84.4225°W)
Time: 17:42:05
(UTC-05:00)
Language:

JAS-1B - Orbit

View from above orbital plane
View from above orbital plane
View from above satellite
View from above satellite

Ground track
Ground track

The orbit data is extracted from the following two-line orbital elements,

1 20480U 90013C   15031.24718874 -.00000031  00000-0  40961-5 0  9639
2 20480 099.0746 316.7959 0540245 197.3307 330.8983 12.83401382170386
Epoch (UTC): 31 January 2015 05:55:57
Eccentricity: 0.0540245
inclination: 99.0746°
perigee height: 911 km
apogee height: 1744 km
right ascension of ascending node: 316.7959°
argument of perigee: 197.3307°
revolutions per day: 12.83401382
mean anomaly at epoch: 330.8983°
orbit number at epoch: 17038

The dashed part of the orbit path shows where the satellite is in the earth's shadow,  

DLR